Find Starlink 34408

NORAD ID: 64363 Int'l Des: 2025-126 Owner: SPXS Country: US Constellation: starlink operational
LEOCIRCULAR

Live-Position

3D-Globus wird geladen...

Über Starlink 34408

Beschreibung wird geladen...

Nächste Überflüge

Passes for default location (London). Set your location on the main map for personalized predictions.

Höhenverlauf

Loading altitude history...

Zweizeiliger Elementsatz

1 64363U 25126V 26106.25926379 .00001630 00000-0 14442-3 0 9994
2 64363 69.9982 299.5597 0002636 270.2432 89.8425 14.98324838 46310
Epoch: 16. Apr. 2026 • Age: 8 hours

Aktueller Status

Höhe 574.1 km
Geschwindigkeit 7.57 km/s
Subsatellitenpunkt 11.76°N, 116.04°W
Startdatum 13. Juni 2025
Alter 0.8 years
Typ internet

Technische Details

Klassifizierung Payload
Masse 575.00 kg
Trockenmasse 530.00 kg
Gesamtmasse 575.00 kg
Länge 0.30 m
Durchmesser 4.10 m
Spannweite 29.00 m
Form Box + pan
Hersteller SPXS
Bus-Typ Starlink V2MO
Phasenstatus In Orbit
Besitzer/Staat SPXS/US

Most Searched